Back to catalog

ONEWEB-0452

AliveCommunicationsPO
NORAD 51644·PAYLOAD·🇬🇧 United Kingdom

Launched Feb 10, 2022 from Guiana Space Centre

Loading…

Next Passes (next 24 hours)

TLE

FreshSource: CelesTrak SupGP

Epoch: Sep 14, 2026, 16:23 UTC

1 51644C 22012Y   26257.68317546  .00002227  00000+0  57423-2 0  2571
2 51644  87.9194 348.1056 0002252 106.9830   3.1838 13.17644368    12

Track ONEWEB-0452 in real time with AllMySat

Download on the App Store